owner,sensor,date,latitude,longitude,vertical_datum,sea_water_practical_salinity,qcFlag 
DISL,ioos:station:DISL:KATA:1,2014-07-01T00:00:00Z,30.2583,-88.2131,3.824,20.38,1111122 
DISL,ioos:station:DISL:KATA:1,2014-07-01T00:30:00Z,30.2583,-88.2131,3.809,20.29,1111122 
DISL,ioos:station:DISL:KATA:1,2014-07-01T01:00:00Z,30.2583,-88.2131,3.797,20.2,1111122 
DISL,ioos:station:DISL:KATA:1,2014-07-01T01:30:00Z,30.2583,-88.2131,3.779,20.18,1111122 
DISL,ioos:station:DISL:KATA:1,2014-07-01T02:00:00Z,30.2583,-88.2131,3.77,20.15,1111122 
DISL,ioos:station:DISL:KATA:1,2014-07-01T02:30:00Z,30.2583,-88.2131,3.763,20.08,1111122 
DISL,ioos:station:DISL:KATA:1,2014-07-01T03:00:00Z,30.2583,-88.2131,3.753,20.04,1111122 
DISL,ioos:station:DISL:KATA:1,2014-07-01T03:30:00Z,30.2583,-88.2131,3.748,19.99,1111122 
DISL,ioos:station:DISL:KATA:1,2014-07-01T04:00:00Z,30.2583,-88.2131,3.75,19.97,1111122 
DISL,ioos:station:DISL:KATA:1,2014-07-01T04:30:00Z,30.2583,-88.2131,3.749,19.97,1111122 
DISL,ioos:station:DISL:KATA:1,2014-07-01T05:00:00Z,30.2583,-88.2131,3.757,19.98,1111122 
DISL,ioos:station:DISL:KATA:1,2014-07-01T05:30:00Z,30.2583,-88.2131,3.78,19.99,1111122 
DISL,ioos:station:DISL:KATA:1,2014-07-01T06:00:00Z,30.2583,-88.2131,3.807,19.98,1111122 
DISL,ioos:station:DISL:KATA:1,2014-07-01T06:30:00Z,30.2583,-88.2131,3.833,19.98,1111122 
DISL,ioos:station:DISL:KATA:1,2014-07-01T07:00:00Z,30.2583,-88.2131,3.877,20.01,1111122 
DISL,ioos:station:DISL:KATA:1,2014-07-01T07:30:00Z,30.2583,-88.2131,3.906,20.04,1111122 
DISL,ioos:station:DISL:KATA:1,2014-07-01T08:00:00Z,30.2583,-88.2131,3.918,20.01,1111122 
DISL,ioos:station:DISL:KATA:1,2014-07-01T08:30:00Z,30.2583,-88.2131,3.937,19.99,1111122 
DISL,ioos:station:DISL:KATA:1,2014-07-01T09:00:00Z,30.2583,-88.2131,3.935,19.96,1111122 
DISL,ioos:station:DISL:KATA:1,2014-07-01T09:30:00Z,30.2583,-88.2131,3.933,19.95,1111122 
DISL,ioos:station:DISL:KATA:1,2014-07-01T10:00:00Z,30.2583,-88.2131,3.935,19.95,1111122 
DISL,ioos:station:DISL:KATA:1,2014-07-01T10:30:00Z,30.2583,-88.2131,3.932,19.95,1111122 
DISL,ioos:station:DISL:KATA:1,2014-07-01T11:00:00Z,30.2583,-88.2131,3.932,20.0,1111122 
DISL,ioos:station:DISL:KATA:1,2014-07-01T11:30:00Z,30.2583,-88.2131,3.939,19.99,1111122 
DISL,ioos:station:DISL:KATA:1,2014-07-01T12:00:00Z,30.2583,-88.2131,3.951,19.97,1111122 
DISL,ioos:station:DISL:KATA:1,2014-07-01T12:30:00Z,30.2583,-88.2131,3.955,19.98,1111122 
DISL,ioos:station:DISL:KATA:1,2014-07-01T13:00:00Z,30.2583,-88.2131,3.957,20.05,1111122 
DISL,ioos:station:DISL:KATA:1,2014-07-01T13:30:00Z,30.2583,-88.2131,3.967,20.12,1111122 
DISL,ioos:station:DISL:KATA:1,2014-07-01T14:00:00Z,30.2583,-88.2131,3.976,20.1,1111122 
DISL,ioos:station:DISL:KATA:1,2014-07-01T14:30:00Z,30.2583,-88.2131,3.993,20.09,1111122 
DISL,ioos:station:DISL:KATA:1,2014-07-01T15:00:00Z,30.2583,-88.2131,4.021,20.07,1111122 
DISL,ioos:station:DISL:KATA:1,2014-07-01T15:30:00Z,30.2583,-88.2131,4.042,20.06,1111122 
DISL,ioos:station:DISL:KATA:1,2014-07-01T16:00:00Z,30.2583,-88.2131,4.057,20.06,1111122 
DISL,ioos:station:DISL:KATA:1,2014-07-01T16:30:00Z,30.2583,-88.2131,4.065,20.13,1111122 
DISL,ioos:station:DISL:KATA:1,2014-07-01T17:00:00Z,30.2583,-88.2131,4.066,20.19,1111122 
DISL,ioos:station:DISL:KATA:1,2014-07-01T17:30:00Z,30.2583,-88.2131,4.055,20.21,1111122 
DISL,ioos:station:DISL:KATA:1,2014-07-01T18:00:00Z,30.2583,-88.2131,4.048,20.22,1111122 
DISL,ioos:station:DISL:KATA:1,2014-07-01T18:30:00Z,30.2583,-88.2131,4.031,20.22,1111122 
DISL,ioos:station:DISL:KATA:1,2014-07-01T19:00:00Z,30.2583,-88.2131,4.016,20.25,1111122 
DISL,ioos:station:DISL:KATA:1,2014-07-01T19:30:00Z,30.2583,-88.2131,3.998,20.25,1111122 
DISL,ioos:station:DISL:KATA:1,2014-07-01T20:00:00Z,30.2583,-88.2131,3.988,20.14,1111122 
DISL,ioos:station:DISL:KATA:1,2014-07-01T20:30:00Z,30.2583,-88.2131,3.973,20.27,1111122 
DISL,ioos:station:DISL:KATA:1,2014-07-01T21:00:00Z,30.2583,-88.2131,3.977,20.26,1111122 
DISL,ioos:station:DISL:KATA:1,2014-07-01T21:30:00Z,30.2583,-88.2131,3.978,20.26,1111122 
DISL,ioos:station:DISL:KATA:1,2014-07-01T22:00:00Z,30.2583,-88.2131,3.958,20.2,1111122 
DISL,ioos:station:DISL:KATA:1,2014-07-01T22:30:00Z,30.2583,-88.2131,3.938,20.22,1111122 
DISL,ioos:station:DISL:KATA:1,2014-07-01T23:00:00Z,30.2583,-88.2131,3.91,20.23,1111122 
DISL,ioos:station:DISL:KATA:1,2014-07-01T23:30:00Z,30.2583,-88.2131,3.873,20.19,1111122 
DISL,ioos:station:DISL:KATA:1,2014-07-02T00:00:00Z,30.2583,-88.2131,3.85,20.21,1111122 
DISL,ioos:station:DISL:KATA:1,2014-07-02T00:30:00Z,30.2583,-88.2131,3.824,20.17,1111122 
DISL,ioos:station:DISL:KATA:1,2014-07-02T01:00:00Z,30.2583,-88.2131,3.81,20.18,1111122 
DISL,ioos:station:DISL:KATA:1,2014-07-02T01:30:00Z,30.2583,-88.2131,3.801,20.11,1111122 
DISL,ioos:station:DISL:KATA:1,2014-07-02T02:00:00Z,30.2583,-88.2131,3.789,20.09,1111122 
DISL,ioos:station:DISL:KATA:1,2014-07-02T02:30:00Z,30.2583,-88.2131,3.786,20.07,1111122 
DISL,ioos:station:DISL:KATA:1,2014-07-02T03:00:00Z,30.2583,-88.2131,3.792,20.07,1111122 
DISL,ioos:station:DISL:KATA:1,2014-07-02T03:30:00Z,30.2583,-88.2131,3.818,20.04,1111122 
DISL,ioos:station:DISL:KATA:1,2014-07-02T04:00:00Z,30.2583,-88.2131,3.836,19.97,1111122 
DISL,ioos:station:DISL:KATA:1,2014-07-02T04:30:00Z,30.2583,-88.2131,3.842,19.91,1111122 
DISL,ioos:station:DISL:KATA:1,2014-07-02T05:00:00Z,30.2583,-88.2131,3.848,19.85,1111122 
DISL,ioos:station:DISL:KATA:1,2014-07-02T05:30:00Z,30.2583,-88.2131,3.84,19.84,1111122 
DISL,ioos:station:DISL:KATA:1,2014-07-02T06:00:00Z,30.2583,-88.2131,3.839,19.84,1111122 
DISL,ioos:station:DISL:KATA:1,2014-07-02T06:30:00Z,30.2583,-88.2131,3.84,19.76,1111122 
DISL,ioos:station:DISL:KATA:1,2014-07-02T07:00:00Z,30.2583,-88.2131,3.844,19.74,1111122 
DISL,ioos:station:DISL:KATA:1,2014-07-02T07:30:00Z,30.2583,-88.2131,3.855,19.74,1111122 
DISL,ioos:station:DISL:KATA:1,2014-07-02T08:00:00Z,30.2583,-88.2131,3.872,19.75,1111122 
DISL,ioos:station:DISL:KATA:1,2014-07-02T08:30:00Z,30.2583,-88.2131,3.884,19.75,1111122 
DISL,ioos:station:DISL:KATA:1,2014-07-02T09:00:00Z,30.2583,-88.2131,3.906,19.72,1111122 
DISL,ioos:station:DISL:KATA:1,2014-07-02T09:30:00Z,30.2583,-88.2131,3.917,19.75,1111122 
DISL,ioos:station:DISL:KATA:1,2014-07-02T10:00:00Z,30.2583,-88.2131,3.924,19.57,1111122 
DISL,ioos:station:DISL:KATA:1,2014-07-02T10:30:00Z,30.2583,-88.2131,3.919,19.71,1111122 
DISL,ioos:station:DISL:KATA:1,2014-07-02T11:00:00Z,30.2583,-88.2131,3.924,19.65,1111122 
DISL,ioos:station:DISL:KATA:1,2014-07-02T11:30:00Z,30.2583,-88.2131,3.936,19.5,1111122 
DISL,ioos:station:DISL:KATA:1,2014-07-02T12:00:00Z,30.2583,-88.2131,3.934,19.46,1111122 
DISL,ioos:station:DISL:KATA:1,2014-07-02T12:30:00Z,30.2583,-88.2131,3.943,19.46,1111122 
DISL,ioos:station:DISL:KATA:1,2014-07-02T13:00:00Z,30.2583,-88.2131,3.937,19.46,1111122 
DISL,ioos:station:DISL:KATA:1,2014-07-02T13:30:00Z,30.2583,-88.2131,3.944,19.44,1111122 
DISL,ioos:station:DISL:KATA:1,2014-07-02T14:00:00Z,30.2583,-88.2131,3.966,19.54,1111122 
DISL,ioos:station:DISL:KATA:1,2014-07-02T14:30:00Z,30.2583,-88.2131,4.016,19.64,1111122 
DISL,ioos:station:DISL:KATA:1,2014-07-02T15:00:00Z,30.2583,-88.2131,4.052,19.65,1111122 
DISL,ioos:station:DISL:KATA:1,2014-07-02T15:30:00Z,30.2583,-88.2131,4.077,19.66,1111122 
DISL,ioos:station:DISL:KATA:1,2014-07-02T16:00:00Z,30.2583,-88.2131,4.077,19.67,1111122 
DISL,ioos:station:DISL:KATA:1,2014-07-02T16:30:00Z,30.2583,-88.2131,4.086,19.64,1111122 
DISL,ioos:station:DISL:KATA:1,2014-07-02T17:00:00Z,30.2583,-88.2131,4.095,19.54,1111122 
DISL,ioos:station:DISL:KATA:1,2014-07-02T17:30:00Z,30.2583,-88.2131,4.101,19.56,1111122 
DISL,ioos:station:DISL:KATA:1,2014-07-02T18:00:00Z,30.2583,-88.2131,4.099,19.5,1111122 
DISL,ioos:station:DISL:KATA:1,2014-07-02T18:30:00Z,30.2583,-88.2131,4.093,19.44,1111122 
DISL,ioos:station:DISL:KATA:1,2014-07-02T19:00:00Z,30.2583,-88.2131,4.059,19.4,1111122 
DISL,ioos:station:DISL:KATA:1,2014-07-02T19:30:00Z,30.2583,-88.2131,4.039,19.4,1111122 
DISL,ioos:station:DISL:KATA:1,2014-07-02T20:00:00Z,30.2583,-88.2131,4.012,19.46,1111122 
DISL,ioos:station:DISL:KATA:1,2014-07-02T20:30:00Z,30.2583,-88.2131,4.001,19.48,1111122 
DISL,ioos:station:DISL:KATA:1,2014-07-02T21:00:00Z,30.2583,-88.2131,4.001,19.49,1111122 
DISL,ioos:station:DISL:KATA:1,2014-07-02T21:30:00Z,30.2583,-88.2131,3.987,19.53,1111122 
DISL,ioos:station:DISL:KATA:1,2014-07-02T22:00:00Z,30.2583,-88.2131,3.969,19.52,1111122 
DISL,ioos:station:DISL:KATA:1,2014-07-02T22:30:00Z,30.2583,-88.2131,3.954,19.55,1111122 
DISL,ioos:station:DISL:KATA:1,2014-07-02T23:00:00Z,30.2583,-88.2131,3.938,19.55,1111122 
DISL,ioos:station:DISL:KATA:1,2014-07-02T23:30:00Z,30.2583,-88.2131,3.903,19.58,1111122 
DISL,ioos:station:DISL:KATA:1,2014-07-03T00:00:00Z,30.2583,-88.2131,3.882,19.58,1111122 
DISL,ioos:station:DISL:KATA:1,2014-07-03T00:30:00Z,30.2583,-88.2131,3.863,19.57,1111122 
DISL,ioos:station:DISL:KATA:1,2014-07-03T01:00:00Z,30.2583,-88.2131,3.857,19.58,1111122 
DISL,ioos:station:DISL:KATA:1,2014-07-03T01:30:00Z,30.2583,-88.2131,3.851,19.54,1111122 
DISL,ioos:station:DISL:KATA:1,2014-07-03T02:00:00Z,30.2583,-88.2131,3.837,19.54,1111122 
DISL,ioos:station:DISL:KATA:1,2014-07-03T02:30:00Z,30.2583,-88.2131,3.851,19.59,1111122 
DISL,ioos:station:DISL:KATA:1,2014-07-03T03:00:00Z,30.2583,-88.2131,3.829,19.56,1111122 
DISL,ioos:station:DISL:KATA:1,2014-07-03T03:30:00Z,30.2583,-88.2131,3.858,19.49,1111122 
DISL,ioos:station:DISL:KATA:1,2014-07-03T04:00:00Z,30.2583,-88.2131,3.815,19.45,1111122 
DISL,ioos:station:DISL:KATA:1,2014-07-03T04:30:00Z,30.2583,-88.2131,3.805,19.4,1111122 
DISL,ioos:station:DISL:KATA:1,2014-07-03T05:00:00Z,30.2583,-88.2131,3.807,19.34,1111122 
DISL,ioos:station:DISL:KATA:1,2014-07-03T05:30:00Z,30.2583,-88.2131,3.801,19.29,1111122 
DISL,ioos:station:DISL:KATA:1,2014-07-03T06:00:00Z,30.2583,-88.2131,3.819,19.22,1111122 
DISL,ioos:station:DISL:KATA:1,2014-07-03T06:30:00Z,30.2583,-88.2131,3.814,19.2,1111122 
DISL,ioos:station:DISL:KATA:1,2014-07-03T07:00:00Z,30.2583,-88.2131,3.773,19.16,1111122 
DISL,ioos:station:DISL:KATA:1,2014-07-03T07:30:00Z,30.2583,-88.2131,3.773,19.13,1111122 
DISL,ioos:station:DISL:KATA:1,2014-07-03T08:00:00Z,30.2583,-88.2131,3.796,19.1,1111122 
DISL,ioos:station:DISL:KATA:1,2014-07-03T08:30:00Z,30.2583,-88.2131,3.805,19.06,1111122 
DISL,ioos:station:DISL:KATA:1,2014-07-03T09:00:00Z,30.2583,-88.2131,3.875,19.05,1111122 
DISL,ioos:station:DISL:KATA:1,2014-07-03T09:30:00Z,30.2583,-88.2131,3.934,19.03,1111122 
DISL,ioos:station:DISL:KATA:1,2014-07-03T10:00:00Z,30.2583,-88.2131,3.972,19.07,1111122 
DISL,ioos:station:DISL:KATA:1,2014-07-03T10:30:00Z,30.2583,-88.2131,4.051,19.13,1111122 
DISL,ioos:station:DISL:KATA:1,2014-07-03T11:00:00Z,30.2583,-88.2131,4.07,19.12,1111122 
DISL,ioos:station:DISL:KATA:1,2014-07-03T11:30:00Z,30.2583,-88.2131,4.069,19.27,1111122 
DISL,ioos:station:DISL:KATA:1,2014-07-03T12:00:00Z,30.2583,-88.2131,4.064,19.32,1111122 
DISL,ioos:station:DISL:KATA:1,2014-07-03T12:30:00Z,30.2583,-88.2131,4.041,19.32,1111122 
DISL,ioos:station:DISL:KATA:1,2014-07-03T13:00:00Z,30.2583,-88.2131,4.026,19.34,1111122 
DISL,ioos:station:DISL:KATA:1,2014-07-03T13:30:00Z,30.2583,-88.2131,4.005,19.34,1111122 
DISL,ioos:station:DISL:KATA:1,2014-07-03T14:00:00Z,30.2583,-88.2131,3.991,19.34,1111122 
DISL,ioos:station:DISL:KATA:1,2014-07-03T14:30:00Z,30.2583,-88.2131,3.987,19.35,1111122 
DISL,ioos:station:DISL:KATA:1,2014-07-03T15:00:00Z,30.2583,-88.2131,3.979,19.36,1111122 
DISL,ioos:station:DISL:KATA:1,2014-07-03T15:30:00Z,30.2583,-88.2131,3.972,19.32,1111122 
DISL,ioos:station:DISL:KATA:1,2014-07-03T16:00:00Z,30.2583,-88.2131,3.975,19.25,1111122 
DISL,ioos:station:DISL:KATA:1,2014-07-03T16:30:00Z,30.2583,-88.2131,3.979,19.21,1111122 
DISL,ioos:station:DISL:KATA:1,2014-07-03T17:00:00Z,30.2583,-88.2131,3.982,19.1,1111122 
DISL,ioos:station:DISL:KATA:1,2014-07-03T17:30:00Z,30.2583,-88.2131,4.008,19.11,1111122 
DISL,ioos:station:DISL:KATA:1,2014-07-03T18:00:00Z,30.2583,-88.2131,4.019,19.04,1111122 
DISL,ioos:station:DISL:KATA:1,2014-07-03T18:30:00Z,30.2583,-88.2131,4.008,18.96,1111122 
DISL,ioos:station:DISL:KATA:1,2014-07-03T19:00:00Z,30.2583,-88.2131,4.014,19.14,1111122 
DISL,ioos:station:DISL:KATA:1,2014-07-03T19:30:00Z,30.2583,-88.2131,4.023,19.2,1111122 
DISL,ioos:station:DISL:KATA:1,2014-07-03T20:00:00Z,30.2583,-88.2131,4.022,19.2,1111122 
DISL,ioos:station:DISL:KATA:1,2014-07-03T20:30:00Z,30.2583,-88.2131,4.019,19.23,1111122 
DISL,ioos:station:DISL:KATA:1,2014-07-03T21:00:00Z,30.2583,-88.2131,4.014,19.26,1111122 
DISL,ioos:station:DISL:KATA:1,2014-07-03T21:30:00Z,30.2583,-88.2131,3.996,19.2,1111122 
DISL,ioos:station:DISL:KATA:1,2014-07-03T22:00:00Z,30.2583,-88.2131,3.991,19.22,1111122 
DISL,ioos:station:DISL:KATA:1,2014-07-03T22:30:00Z,30.2583,-88.2131,3.988,19.22,1111122 
DISL,ioos:station:DISL:KATA:1,2014-07-03T23:00:00Z,30.2583,-88.2131,3.977,19.26,1111122 
DISL,ioos:station:DISL:KATA:1,2014-07-03T23:30:00Z,30.2583,-88.2131,3.969,19.29,1111122 
DISL,ioos:station:DISL:KATA:1,2014-07-04T00:00:00Z,30.2583,-88.2131,3.957,19.28,1111122 
DISL,ioos:station:DISL:KATA:1,2014-07-04T00:30:00Z,30.2583,-88.2131,3.928,19.27,1111122 
DISL,ioos:station:DISL:KATA:1,2014-07-04T01:00:00Z,30.2583,-88.2131,3.897,19.13,1111122 
DISL,ioos:station:DISL:KATA:1,2014-07-04T01:30:00Z,30.2583,-88.2131,3.858,19.29,1111122 
DISL,ioos:station:DISL:KATA:1,2014-07-04T02:00:00Z,30.2583,-88.2131,3.838,19.22,1111122 
DISL,ioos:station:DISL:KATA:1,2014-07-04T02:30:00Z,30.2583,-88.2131,3.828,19.17,1111122 
DISL,ioos:station:DISL:KATA:1,2014-07-04T03:00:00Z,30.2583,-88.2131,3.826,19.14,1111122 
DISL,ioos:station:DISL:KATA:1,2014-07-04T03:30:00Z,30.2583,-88.2131,3.828,19.26,1111122 
DISL,ioos:station:DISL:KATA:1,2014-07-04T04:00:00Z,30.2583,-88.2131,3.845,18.9,1111122 
DISL,ioos:station:DISL:KATA:1,2014-07-04T04:30:00Z,30.2583,-88.2131,3.876,18.87,1111122 
DISL,ioos:station:DISL:KATA:1,2014-07-04T05:00:00Z,30.2583,-88.2131,3.889,18.81,1111122 
DISL,ioos:station:DISL:KATA:1,2014-07-04T05:30:00Z,30.2583,-88.2131,3.917,18.94,1111122 
DISL,ioos:station:DISL:KATA:1,2014-07-04T06:00:00Z,30.2583,-88.2131,3.922,18.91,1111122 
DISL,ioos:station:DISL:KATA:1,2014-07-04T06:30:00Z,30.2583,-88.2131,3.918,18.86,1111122 
DISL,ioos:station:DISL:KATA:1,2014-07-04T07:00:00Z,30.2583,-88.2131,3.925,18.93,1111122 
DISL,ioos:station:DISL:KATA:1,2014-07-04T07:30:00Z,30.2583,-88.2131,3.927,19.19,1111122 
DISL,ioos:station:DISL:KATA:1,2014-07-04T08:00:00Z,30.2583,-88.2131,3.926,18.95,1111122 
DISL,ioos:station:DISL:KATA:1,2014-07-04T08:30:00Z,30.2583,-88.2131,3.921,18.92,1111122 
DISL,ioos:station:DISL:KATA:1,2014-07-04T09:00:00Z,30.2583,-88.2131,3.935,19.01,1111122 
DISL,ioos:station:DISL:KATA:1,2014-07-04T09:30:00Z,30.2583,-88.2131,3.94,18.97,1111122 
DISL,ioos:station:DISL:KATA:1,2014-07-04T10:00:00Z,30.2583,-88.2131,3.959,18.98,1111122 
DISL,ioos:station:DISL:KATA:1,2014-07-04T10:30:00Z,30.2583,-88.2131,3.97,18.86,1111122 
DISL,ioos:station:DISL:KATA:1,2014-07-04T11:00:00Z,30.2583,-88.2131,3.962,19.05,1111122 
DISL,ioos:station:DISL:KATA:1,2014-07-04T11:30:00Z,30.2583,-88.2131,3.963,19.11,1111122 
DISL,ioos:station:DISL:KATA:1,2014-07-04T12:00:00Z,30.2583,-88.2131,3.953,18.93,1111122 
DISL,ioos:station:DISL:KATA:1,2014-07-04T12:30:00Z,30.2583,-88.2131,3.942,18.97,1111122 
DISL,ioos:station:DISL:KATA:1,2014-07-04T13:00:00Z,30.2583,-88.2131,3.933,19.06,1111122 
DISL,ioos:station:DISL:KATA:1,2014-07-04T13:30:00Z,30.2583,-88.2131,3.925,18.97,1111122 
DISL,ioos:station:DISL:KATA:1,2014-07-04T14:00:00Z,30.2583,-88.2131,3.902,19.22,1111122 
DISL,ioos:station:DISL:KATA:1,2014-07-04T14:30:00Z,30.2583,-88.2131,3.894,19.29,1111122 
DISL,ioos:station:DISL:KATA:1,2014-07-04T15:00:00Z,30.2583,-88.2131,3.886,19.17,1111122 
DISL,ioos:station:DISL:KATA:1,2014-07-04T15:30:00Z,30.2583,-88.2131,3.895,19.12,1111122 
DISL,ioos:station:DISL:KATA:1,2014-07-04T16:00:00Z,30.2583,-88.2131,3.905,19.18,1111122 
DISL,ioos:station:DISL:KATA:1,2014-07-04T16:30:00Z,30.2583,-88.2131,3.914,19.07,1111122 
DISL,ioos:station:DISL:KATA:1,2014-07-04T17:00:00Z,30.2583,-88.2131,3.919,19.03,1111122 
DISL,ioos:station:DISL:KATA:1,2014-07-04T17:30:00Z,30.2583,-88.2131,3.939,18.96,1111122 
DISL,ioos:station:DISL:KATA:1,2014-07-04T18:00:00Z,30.2583,-88.2131,3.943,18.95,1111122 
DISL,ioos:station:DISL:KATA:1,2014-07-04T18:30:00Z,30.2583,-88.2131,3.951,18.99,1111122 
DISL,ioos:station:DISL:KATA:1,2014-07-04T19:00:00Z,30.2583,-88.2131,3.948,18.77,1111122 
DISL,ioos:station:DISL:KATA:1,2014-07-04T19:30:00Z,30.2583,-88.2131,3.943,18.82,1111122 
DISL,ioos:station:DISL:KATA:1,2014-07-04T20:00:00Z,30.2583,-88.2131,3.921,18.95,1111122 
DISL,ioos:station:DISL:KATA:1,2014-07-04T20:30:00Z,30.2583,-88.2131,3.895,18.53,1111122 
DISL,ioos:station:DISL:KATA:1,2014-07-04T21:00:00Z,30.2583,-88.2131,3.88,18.76,1111122 
DISL,ioos:station:DISL:KATA:1,2014-07-04T21:30:00Z,30.2583,-88.2131,3.865,19.3,1111122 
DISL,ioos:station:DISL:KATA:1,2014-07-04T22:00:00Z,30.2583,-88.2131,3.862,19.81,1111122 
DISL,ioos:station:DISL:KATA:1,2014-07-04T22:30:00Z,30.2583,-88.2131,3.867,20.78,1111122 
DISL,ioos:station:DISL:KATA:1,2014-07-04T23:00:00Z,30.2583,-88.2131,3.887,20.86,1111122 
DISL,ioos:station:DISL:KATA:1,2014-07-04T23:30:00Z,30.2583,-88.2131,3.89,21.6,1111122 
DISL,ioos:station:DISL:KATA:1,2014-07-05T00:00:00Z,30.2583,-88.2131,3.875,22.45,1111122 
DISL,ioos:station:DISL:KATA:1,2014-07-05T00:30:00Z,30.2583,-88.2131,3.849,22.47,1111122 
DISL,ioos:station:DISL:KATA:1,2014-07-05T01:00:00Z,30.2583,-88.2131,3.823,22.75,1111122 
DISL,ioos:station:DISL:KATA:1,2014-07-05T01:30:00Z,30.2583,-88.2131,3.804,22.49,1111122 
DISL,ioos:station:DISL:KATA:1,2014-07-05T02:00:00Z,30.2583,-88.2131,3.778,22.56,1111122 
DISL,ioos:station:DISL:KATA:1,2014-07-05T02:30:00Z,30.2583,-88.2131,3.758,22.53,1111122 
DISL,ioos:station:DISL:KATA:1,2014-07-05T03:00:00Z,30.2583,-88.2131,3.754,22.46,1111122 
DISL,ioos:station:DISL:KATA:1,2014-07-05T03:30:00Z,30.2583,-88.2131,3.753,22.61,1111122 
DISL,ioos:station:DISL:KATA:1,2014-07-05T04:00:00Z,30.2583,-88.2131,3.773,22.72,1111122 
DISL,ioos:station:DISL:KATA:1,2014-07-05T04:30:00Z,30.2583,-88.2131,3.795,22.8,1111122 
DISL,ioos:station:DISL:KATA:1,2014-07-05T05:00:00Z,30.2583,-88.2131,3.817,23.22,1111122 
DISL,ioos:station:DISL:KATA:1,2014-07-05T05:30:00Z,30.2583,-88.2131,3.852,23.25,1111122 
DISL,ioos:station:DISL:KATA:1,2014-07-05T06:00:00Z,30.2583,-88.2131,3.863,23.4,1111122 
DISL,ioos:station:DISL:KATA:1,2014-07-05T06:30:00Z,30.2583,-88.2131,3.873,23.43,1111122 
DISL,ioos:station:DISL:KATA:1,2014-07-05T07:00:00Z,30.2583,-88.2131,3.894,23.32,1111122 
DISL,ioos:station:DISL:KATA:1,2014-07-05T07:30:00Z,30.2583,-88.2131,3.909,23.48,1111122 
DISL,ioos:station:DISL:KATA:1,2014-07-05T08:00:00Z,30.2583,-88.2131,3.91,24.1,1111122 
DISL,ioos:station:DISL:KATA:1,2014-07-05T08:30:00Z,30.2583,-88.2131,3.929,23.99,1111122 
DISL,ioos:station:DISL:KATA:1,2014-07-05T09:00:00Z,30.2583,-88.2131,3.945,23.93,1111122 
DISL,ioos:station:DISL:KATA:1,2014-07-05T09:30:00Z,30.2583,-88.2131,3.952,23.97,1111122 
DISL,ioos:station:DISL:KATA:1,2014-07-05T10:00:00Z,30.2583,-88.2131,3.957,24.04,1111122 
DISL,ioos:station:DISL:KATA:1,2014-07-05T10:30:00Z,30.2583,-88.2131,3.971,24.1,1111122 
DISL,ioos:station:DISL:KATA:1,2014-07-05T11:00:00Z,30.2583,-88.2131,3.981,23.86,1111122 
DISL,ioos:station:DISL:KATA:1,2014-07-05T11:30:00Z,30.2583,-88.2131,3.985,24.53,1111122 
DISL,ioos:station:DISL:KATA:1,2014-07-05T12:00:00Z,30.2583,-88.2131,3.995,24.3,1111122 
DISL,ioos:station:DISL:KATA:1,2014-07-05T12:30:00Z,30.2583,-88.2131,4.006,24.42,1111122 
DISL,ioos:station:DISL:KATA:1,2014-07-05T13:00:00Z,30.2583,-88.2131,4.011,24.46,1111122 
DISL,ioos:station:DISL:KATA:1,2014-07-05T13:30:00Z,30.2583,-88.2131,3.99,24.62,1111122 
DISL,ioos:station:DISL:KATA:1,2014-07-05T14:00:00Z,30.2583,-88.2131,3.99,24.68,1111122 
DISL,ioos:station:DISL:KATA:1,2014-07-05T14:30:00Z,30.2583,-88.2131,3.977,24.64,1111122 
DISL,ioos:station:DISL:KATA:1,2014-07-05T15:00:00Z,30.2583,-88.2131,3.967,24.68,1111122 
DISL,ioos:station:DISL:KATA:1,2014-07-05T15:30:00Z,30.2583,-88.2131,3.956,24.47,1111122 
DISL,ioos:station:DISL:KATA:1,2014-07-05T16:00:00Z,30.2583,-88.2131,3.957,24.7,1111122 
DISL,ioos:station:DISL:KATA:1,2014-07-05T16:30:00Z,30.2583,-88.2131,3.948,24.75,1111122 
DISL,ioos:station:DISL:KATA:1,2014-07-05T17:00:00Z,30.2583,-88.2131,3.944,24.61,1111122 
DISL,ioos:station:DISL:KATA:1,2014-07-05T17:30:00Z,30.2583,-88.2131,3.942,24.96,1111122 
DISL,ioos:station:DISL:KATA:1,2014-07-05T18:00:00Z,30.2583,-88.2131,3.936,24.92,1111122 
DISL,ioos:station:DISL:KATA:1,2014-07-05T18:30:00Z,30.2583,-88.2131,3.931,24.95,1111122 
DISL,ioos:station:DISL:KATA:1,2014-07-05T19:00:00Z,30.2583,-88.2131,3.923,24.77,1111122 
DISL,ioos:station:DISL:KATA:1,2014-07-05T19:30:00Z,30.2583,-88.2131,3.918,24.74,1111122 
DISL,ioos:station:DISL:KATA:1,2014-07-05T20:00:00Z,30.2583,-88.2131,3.912,24.78,1111122 
DISL,ioos:station:DISL:KATA:1,2014-07-05T20:30:00Z,30.2583,-88.2131,3.9,24.79,1111122 
DISL,ioos:station:DISL:KATA:1,2014-07-05T21:00:00Z,30.2583,-88.2131,3.891,24.82,1111122 
DISL,ioos:station:DISL:KATA:1,2014-07-05T21:30:00Z,30.2583,-88.2131,3.883,25.08,1111122 
DISL,ioos:station:DISL:KATA:1,2014-07-05T22:00:00Z,30.2583,-88.2131,3.867,24.97,1111122 
DISL,ioos:station:DISL:KATA:1,2014-07-05T22:30:00Z,30.2583,-88.2131,3.856,25.24,1111122 
DISL,ioos:station:DISL:KATA:1,2014-07-05T23:00:00Z,30.2583,-88.2131,3.863,25.1,1111122 
DISL,ioos:station:DISL:KATA:1,2014-07-05T23:30:00Z,30.2583,-88.2131,3.854,25.43,1111122 
DISL,ioos:station:DISL:KATA:1,2014-07-06T00:00:00Z,30.2583,-88.2131,3.851,25.07,1111122 
DISL,ioos:station:DISL:KATA:1,2014-07-06T00:30:00Z,30.2583,-88.2131,3.853,24.83,1111122 
DISL,ioos:station:DISL:KATA:1,2014-07-06T01:00:00Z,30.2583,-88.2131,3.847,25.52,1111122 
DISL,ioos:station:DISL:KATA:1,2014-07-06T01:30:00Z,30.2583,-88.2131,3.854,25.02,1111122 
DISL,ioos:station:DISL:KATA:1,2014-07-06T02:00:00Z,30.2583,-88.2131,3.856,24.97,1111122 
DISL,ioos:station:DISL:KATA:1,2014-07-06T02:30:00Z,30.2583,-88.2131,3.859,25.38,1111122 
DISL,ioos:station:DISL:KATA:1,2014-07-06T03:00:00Z,30.2583,-88.2131,3.871,25.32,1111122 
DISL,ioos:station:DISL:KATA:1,2014-07-06T03:30:00Z,30.2583,-88.2131,3.88,25.28,1111122 
DISL,ioos:station:DISL:KATA:1,2014-07-06T04:00:00Z,30.2583,-88.2131,3.898,25.23,1111122 
DISL,ioos:station:DISL:KATA:1,2014-07-06T04:30:00Z,30.2583,-88.2131,3.899,25.31,1111122 
DISL,ioos:station:DISL:KATA:1,2014-07-06T05:00:00Z,30.2583,-88.2131,3.917,25.29,1111122 
DISL,ioos:station:DISL:KATA:1,2014-07-06T05:30:00Z,30.2583,-88.2131,3.916,25.27,1111122 
DISL,ioos:station:DISL:KATA:1,2014-07-06T06:00:00Z,30.2583,-88.2131,3.925,25.34,1111122 
DISL,ioos:station:DISL:KATA:1,2014-07-06T06:30:00Z,30.2583,-88.2131,3.937,25.29,1111122 
DISL,ioos:station:DISL:KATA:1,2014-07-06T07:00:00Z,30.2583,-88.2131,3.963,24.83,1111122 
DISL,ioos:station:DISL:KATA:1,2014-07-06T07:30:00Z,30.2583,-88.2131,3.99,25.11,1111122 
DISL,ioos:station:DISL:KATA:1,2014-07-06T08:00:00Z,30.2583,-88.2131,4.025,24.96,1111122 
DISL,ioos:station:DISL:KATA:1,2014-07-06T08:30:00Z,30.2583,-88.2131,4.047,24.82,1111122 
DISL,ioos:station:DISL:KATA:1,2014-07-06T09:00:00Z,30.2583,-88.2131,4.056,24.72,1111122 
DISL,ioos:station:DISL:KATA:1,2014-07-06T09:30:00Z,30.2583,-88.2131,4.053,24.78,1111122 
DISL,ioos:station:DISL:KATA:1,2014-07-06T10:00:00Z,30.2583,-88.2131,4.039,24.53,1111122 
DISL,ioos:station:DISL:KATA:1,2014-07-06T10:30:00Z,30.2583,-88.2131,4.028,24.76,1111122 
DISL,ioos:station:DISL:KATA:1,2014-07-06T11:00:00Z,30.2583,-88.2131,4.015,24.72,1111122 
DISL,ioos:station:DISL:KATA:1,2014-07-06T11:30:00Z,30.2583,-88.2131,4.006,24.7,1111122 
DISL,ioos:station:DISL:KATA:1,2014-07-06T12:00:00Z,30.2583,-88.2131,4.016,24.66,1111122 
DISL,ioos:station:DISL:KATA:1,2014-07-06T12:30:00Z,30.2583,-88.2131,4.023,24.63,1111122 
DISL,ioos:station:DISL:KATA:1,2014-07-06T13:00:00Z,30.2583,-88.2131,4.017,24.65,1111122 
DISL,ioos:station:DISL:KATA:1,2014-07-06T13:30:00Z,30.2583,-88.2131,4.017,24.83,1111122 
DISL,ioos:station:DISL:KATA:1,2014-07-06T14:00:00Z,30.2583,-88.2131,4.011,24.97,1111122 